Location: Frizzleburg
(41.0764°N, 80.4548°W)
Time: 05:16:51
(UTC+00:00)

STARLINK-80 - Pass Details

Date: 17 November 2019
Orbit: 492 x 497 km, 53.0° (Epoch: 10 December)

Event Time Altitude Azimuth Distance (km) Brightness Sun altitude
Exits shadow 10:15:54 34° 5° (N) 840 4.5 -21.7°
Drops below altitude 10° 10:18:37 10° 40° (NE) 1,701 6.5 -21.2°
Sets 10:20:54 0° 48° (NE) 2,587 7.7 -20.8°
